Location: Menands
(42.6920°N, 73.7246°W)
Time: 17:55:59
(UTC+00:00)

IRS-P3 - Pass Details

Date: 18 February 2026
Orbit: 811 x 815 km, 99.0° (Epoch: 12 March)

Event Time Altitude Azimuth Distance (km) Brightness Sun altitude
Rises 23:04:45 0° 167° (SSE) 3,323 7.3 -6.9°
Reaches altitude 10° 23:07:05 10° 168° (SSE) 2,396 6.5 -7.4°
Maximum altitude 23:12:23 81° 256° (WSW) 830 4.3 -8.3°
Drops below altitude 10° 23:17:45 10° 344° (NNW) 2,414 6.7 -9.3°
Sets 23:20:06 0° 345° (NNW) 3,351 7.4 -9.7°
